TimeEDT,TemperatureF,Dew PointF,Humidity,Sea Level PressureIn,VisibilityMPH,Wind Direction,Wind SpeedMPH,Gust SpeedMPH,PrecipitationIn,Events,Conditions,WindDirDegrees,DateUTC
12:54 AM,70.0,64.9,84,30.15,10.0,WNW,5.8,-,N/A,,Clear,300,2012-10-05 04:54:00
1:54 AM,68.0,64.9,90,30.15,10.0,Calm,Calm,-,N/A,,Clear,0,2012-10-05 05:54:00
2:54 AM,68.0,64.0,87,30.14,10.0,WNW,5.8,-,N/A,,Clear,300,2012-10-05 06:54:00
3:54 AM,68.0,64.0,87,30.12,10.0,NW,3.5,-,N/A,,Clear,310,2012-10-05 07:54:00
4:54 AM,68.0,64.0,87,30.13,10.0,NW,4.6,-,N/A,,Clear,310,2012-10-05 08:54:00
5:54 AM,66.9,64.0,90,30.14,9.0,WNW,4.6,-,N/A,,Clear,300,2012-10-05 09:54:00
6:54 AM,66.9,63.0,87,30.14,9.0,WNW,4.6,-,N/A,,Clear,300,2012-10-05 10:54:00
7:54 AM,68.0,63.0,84,30.14,8.0,NNW,5.8,-,N/A,,Mostly Cloudy,330,2012-10-05 11:54:00
8:54 AM,69.1,64.0,84,30.14,8.0,NNW,3.5,-,N/A,,Mostly Cloudy,330,2012-10-05 12:54:00
9:54 AM,73.9,62.1,66,30.14,10.0,North,3.5,-,N/A,,Mostly Cloudy,350,2012-10-05 13:54:00
10:54 AM,73.0,62.1,68,30.14,10.0,North,4.6,-,N/A,,Mostly Cloudy,10,2012-10-05 14:54:00
11:54 AM,77.0,62.1,60,30.13,10.0,Calm,Calm,-,N/A,,Clear,0,2012-10-05 15:54:00
12:54 PM,78.1,61.0,56,30.11,10.0,NE,3.5,-,N/A,,Mostly Cloudy,50,2012-10-05 16:54:00
1:54 PM,80.1,64.0,58,30.09,10.0,ENE,5.8,-,N/A,,Clear,70,2012-10-05 17:54:00
2:54 PM,79.0,62.1,56,30.07,10.0,Calm,Calm,-,N/A,,Partly Cloudy,0,2012-10-05 18:54:00
3:54 PM,81.0,60.1,49,30.06,10.0,East,4.6,-,N/A,,Clear,90,2012-10-05 19:54:00
4:54 PM,78.1,63.0,60,30.04,10.0,ENE,4.6,-,N/A,,Scattered Clouds,60,2012-10-05 20:54:00
5:54 PM,75.0,64.9,71,30.04,10.0,SE,6.9,-,N/A,,Mostly Cloudy,140,2012-10-05 21:54:00
6:54 PM,72.0,64.9,78,30.04,10.0,South,3.5,-,N/A,,Partly Cloudy,180,2012-10-05 22:54:00
7:26 PM,69.8,64.4,83,30.05,10.0,South,3.5,-,N/A,,Partly Cloudy,190,2012-10-05 23:26:00
7:54 PM,69.1,64.9,87,30.04,10.0,SSW,3.5,-,N/A,,Scattered Clouds,200,2012-10-05 23:54:00
8:54 PM,68.0,64.9,90,30.05,9.0,Calm,Calm,-,N/A,,Mostly Cloudy,0,2012-10-06 00:54:00
9:54 PM,68.0,64.0,87,30.05,10.0,Calm,Calm,-,N/A,,Clear,0,2012-10-06 01:54:00
10:54 PM,66.9,63.0,87,30.05,9.0,Calm,Calm,-,N/A,,Clear,0,2012-10-06 02:54:00
11:54 PM,64.9,62.1,90,30.04,6.0,ESE,4.6,-,N/A,,Clear,120,2012-10-06 03:54:00